sat.trackr.live / text

‹ back to catalog

STARLINK-1678

NORAD 46538 · 2020-070G

PAYLOAD ACTIVE UNKNOWN

§ Identity

Operator
Country
US
Launch date
2020-10-06
Launch site
AFETR
Launch vehicle
Mass (kg)
RCS (m²)

Purposes: comms

External: N2YO · Heavens-Above · Gunter

§ Orbital elements

Epoch: 2026-05-25T03:06:32.825376Z

Period
91.13 min
Inclination
53.0345°
Eccentricity
0.0006650
Mean motion
15.80086428 rev/d
Perigee alt
325.7 km
Apogee alt
334.7 km
Semi-major
6,708.3 km
B*
8.1157e-4
RAAN
92.8089°
Arg perigee
74.2393°
Mean anomaly
285.9361°
Rev number
31,243

§ Raw data

STARLINK-16781 46538U 20070G   26145.12954659  .00156854  00000+0  81157-3 0  99972 46538  53.0345  92.8089 0006650  74.2393 285.9361 15.80086428312438

JSON: /api/v1/satellites/46538 · /tle

For live sub-satellite position, see the globe view (requires WebGL).

§ Visibility from observer

Set your observer location to see the next 7 days of passes ≥ 10°. The values pass through the URL so the page stays shareable.

No JS? Fill the form by hand. The geolocation button needs JavaScript.